Regional Weather Roundup
Issued by NWS

Home | Current Version | Previous Version | Text Only | Print | Product List | Glossary Off
Versions: 1 2 3 4 5 6 7 8 9 10 11 12 13 14 15 16 17 18 19 20 21 22 23 24 25 26 27 28 29 30 31 32 33 34 35 36 37 38 39 40 41 42 43 44 45 46 47 48 49 50

000
ASUS43 KDTX 020310
RWRMI
MICHIGAN HOURLY REGIONAL WEATHER ROUNDUP
NATIONAL WEATHER SERVICE DETROIT/PONTIAC MI
1100 PM EDT WED JUL 01 2015

NOTE: "FAIR" INDICATES FEW OR NO CLOUDS BELOW 12,000 FEET WITH NO
SIGNIFICANT WEATHER AND/OR OBSTRUCTION TO VISIBILITY.

MIZ047>049-052>055-059>063-066>070-074>076-081>083-020400-
SOUTHEAST LOWER MICHIGAN

CITY           SKY/WX    TMP DP  RH WIND       PRES   REMARKS
ADRIAN         CLOUDY    62  56  80 N5        29.96R
ALMA           CLOUDY    61  55  79 N8        29.99R
ANN ARBOR      CLOUDY    60  54  80 NE5       29.95R
BAD AXE        CLOUDY    59  55  85 NE3       29.99R
CARO           CLOUDY    62  58  88 CALM      29.97R
DETROIT CITY   MOCLDY    63  55  75 NE5       29.96R
DETROIT        MOCLDY    63  55  75 N5        29.95S
FLINT          CLOUDY    62  56  80 CALM      29.97R
GROSSE ILE     MOCLDY    64  57  77 N5        29.94R
HILLSDALE      CLOUDY    62  57  84 CALM      29.96S
HOWELL         CLOUDY    58  56  92 CALM      29.97R

CITY           SKY/WX    TMP DP  RH WIND       PRES   REMARKS
JACKSON        CLOUDY    60  56  86 CALM      29.97R
LAMBERTVILLE   CLOUDY    65  58  80 CALM      29.95R
LANSING        CLOUDY    60  55  83 CALM      29.98R
LAPEER         FAIR      58  55  92 CALM      29.98R
MASON          CLOUDY    57  55  91 CALM      29.97R
MONROE         MOCLDY    63  56  80 N3        29.94R
MT. CLEMENS    MOCLDY    61  58  92 NE8       29.95R
PONTIAC        MOCLDY    58  55  90 NE6       29.95R
PORT HOPE        N/A     60  55  83 CALM      29.97R
PORT HURON     CLOUDY    57  57 100 CALM      29.98R
TRI CITIES     CLOUDY    63  54  72 NW12      29.99R
MIDLAND        CLOUDY    60  53  77 NW6       29.99R
TROY           MOCLDY    64  56  78 NE5       29.98S
SAGINAW HB     CLOUDY    63  55  77 NW7       29.97R
$$
MIZ043>046-050>051-056>058-064>065-071>073-077>080-020400-
SOUTHWEST LOWER MICHIGAN

CITY           SKY/WX    TMP DP  RH WIND       PRES   REMARKS
BATTLE CREEK   CLOUDY    60  53  77 NW7       29.98R
BENTON HARBOR  CLOUDY    58  54  86 CALM      29.98R
BIG RAPIDS     CLOUDY    60  50  69 N6        30.00R
COLDWATER      CLOUDY    59  53  81 NW3       29.97R
FREMONT        FAIR      54  53  96 N3        30.00R
HOLLAND        MOCLDY    56  52  86 N3        30.00R
GRAND RAPIDS   PTCLDY    59  54  83 NW6       29.99R
IONIA          FAIR      60  54  82 N5        29.98R
KALAMAZOO      CLOUDY    58  52  80 NW6       29.99R
LUDINGTON      CLEAR     51  48  90 N5        30.03R
MARSHALL       CLOUDY    59  54  83 NW3       29.97R
MOUNT PLEASANT PTCLDY    57  52  82 NW3       30.00R
MUSKEGON       PTCLDY    57  52  83 N5        30.00R
SOUTH HAVEN    CLOUDY    55  52  89 CALM      29.99R
$$
MIZ016>042-020400-
NORTHERN LOWER MICHIGAN

CITY           SKY/WX    TMP DP  RH WIND       PRES   REMARKS
ALPENA         MOCLDY    56  50  80 NW3       29.99R
BEAVER ISLAND  PTCLDY    55  43  64 N3        30.02R
BELLAIRE       PTCLDY    50  48  93 CALM      30.02R
CADILLAC       CLOUDY    55  50  85 CALM      30.02R
CHARLEVOIX     PTCLDY    57  48  71 N10       30.04R
FRANKFORT      CLEAR     50  44  80 CALM      30.02R
GAYLORD        PTCLDY    52  50  93 CALM      30.01R
GRAYLING       CLOUDY    51  50  94 W3        30.02R
HARBOR SPRINGS PTCLDY    53  47  81 N6        30.01R
HOUGHTON LAKE  CLOUDY    56  51  84 NW6       30.02R
MANISTEE       CLEAR     48  45  87 CALM      30.03R
OSCODA         PTCLDY    57  53  86 CALM      29.98R
PELLSTON       PTCLDY    55  46  71 NW8       30.01R
ROGERS CITY    MOCLDY    56  49  75 NW8       30.00R
TRAVERSE CITY  CLEAR     52  49  89 CALM      30.01R
$$
MIZ007>008-015-020400-
EASTERN UPPER MICHIGAN

CITY           SKY/WX    TMP DP  RH WIND       PRES   REMARKS
KINROSS        PTCLDY    48  45  87 NW9       30.00R
MACKINAC ISLAN MOCLDY    55  44  67 N10       30.00R
NEWBERRY       PTCLDY    47  42  84 NW3       30.01R
S. S. MARIE    CLEAR     49  42  77 W9        29.99R
MUNISING         N/A     47  44  90 S6        30.02R
$$
MIZ004>006-011>014-085-020400-
CENTRAL UPPER MICHIGAN

CITY           SKY/WX    TMP DP  RH WIND       PRES   REMARKS
MANISTIQUE     PTCLDY    48  42  77 CALM      30.02R
ESCANABA       CLEAR     48  43  81 NW3       30.02S
MENOMINEE      CLEAR     57  39  51 NE6       30.02S
SAWYER-GWINN   CLEAR     50  43  78 CALM      30.03R
$$
MIZ001>003-009>011-084-020400-
WESTERN UPPER MICHIGAN

CITY           SKY/WX    TMP DP  RH WIND       PRES   REMARKS
IRON MOUNTAIN  CLEAR     53  44  71 CALM      30.03R
HOUGHTON       MOCLDY    53  46  77 CALM      30.01S
COPPER HARBOR    N/A     52  48  86 CALM      30.01R
IRONWOOD       CLEAR     52  48  87 CALM      30.01R
$$

ABBREVIATIONS USED IN REMARKS
   TC - TEMPERATURE IN CELSIUS
  WCI - WIND CHILL INDEX
   HX - HEAT INDEX
  VSB - VISIBILITY




USA.gov is the U.S. government's official web portal to all federal, state and local government web resources and services.